Flag for India Weather past 2 weeks in Nãgpur, Maharashtra, India

Now
84 °F

Haze.


Feels Like: 88 °F
Forecast: 76 / 93 °F
Wind: 2 mph from Northeast

Location: Nagpur Sonegaon

Current Time: Sep 5, 2015 at 7:49:46 PM

Latest Report: Sep 5, 2015 at 7:10 PM


Visibility: 3 mi

Pressure: 29.83 "Hg

Humidity: 62%

Dew point: 70 °F

Location of NãgpurLocation

Historic Weather in Nãgpur — Graph

°F

Nãgpur temperature yesterday

Maximum temperature yesterday: 95 °F (at 2:40 PM)
Minimum temperature yesterday: 72 °F (at 5:40 AM)
Average temperature yesterday: 83 °F

Past Weeks' High & Low Weather Summary

 TemperatureHumidityPressure
High99 °F (Aug 23, 1:40 PM)100% (Aug 29, 3:10 AM)29.95 "Hg (Aug 29, 3:10 AM)
Low72 °F (Sep 1, 5:10 AM)47% (Sep 3, 6:40 AM)29.62 "Hg (Aug 26, 3:10 PM)
Average82 °F76%29.75 "Hg
* Reported Aug 21 5:40 PM — Sep 5 6:10 PM, Nãgpur, Weather by CustomWeather, © 2015

Note: Actual official high and low records may vary slightly from our data, if they occured in-between our weather recording intervals... More about our weather records

Advertising

Nãgpur weather history for previous 24 hours

 ConditionsComfort  
Time TempWeatherWind HumidityBarometerVisibility
6:10 PM
Sat, Sep 5
88 °FPassing clouds.2 mph66%29.80 "Hg4 mi
5:40 PM93 °FPassing clouds.2 mph59%29.80 "Hg4 mi
5:10 PM95 °FPassing clouds.No wind53%29.80 "Hg4 mi
4:40 PM95 °FScattered clouds.3 mph56%29.80 "Hg4 mi
3:40 PM95 °FScattered clouds.5 mph56%29.80 "Hg4 mi
3:10 PM97 °FScattered clouds.5 mph53%29.80 "Hg4 mi
2:40 PM97 °FScattered clouds.5 mph50%29.83 "Hg4 mi
2:10 PM79 °FScattered clouds.2 mph89%29.86 "Hg4 mi
1:40 PM95 °FScattered clouds.2 mph53%29.86 "Hg4 mi
1:10 PM93 °FScattered clouds.5 mph59%29.89 "Hg4 mi
12:40 PM93 °FScattered clouds.2 mph56%29.89 "Hg4 mi
11:40 AM91 °FPassing clouds.3 mph59%29.92 "Hg4 mi
10:40 AM90 °FPassing clouds.3 mph59%29.95 "Hg4 mi
9:40 AM88 °FClear.3 mph62%29.95 "Hg4 mi
8:40 AM84 °FHaze.5 mph70%29.95 "Hg3 mi
7:40 AM79 °FHaze.3 mph79%29.95 "Hg3 mi
7:10 AM77 °FHaze.3 mph79%29.95 "Hg3 mi
6:40 AM75 °FHaze.No wind83%29.92 "Hg3 mi
6:10 AM75 °FHaze.5 mph83%29.92 "Hg3 mi
5:40 AM75 °FHaze.No wind83%29.92 "Hg3 mi
3:10 AM75 °FPassing clouds.No wind83%29.89 "Hg3 mi
2:40 AM75 °FPassing clouds.No wind83%29.89 "Hg3 mi
2:10 AM75 °FPassing clouds.No wind89%29.89 "Hg3 mi
1:10 AM77 °FPassing clouds.No wind83%29.89 "Hg3 mi
12:10 AM77 °FPassing clouds.No wind83%29.89 "Hg3 mi
11:10 PM
Fri, Sep 4
79 °FPassing clouds.No wind79%29.89 "Hg3 mi
10:40 PM79 °FPassing clouds.2 mph79%29.92 "Hg3 mi
10:10 PM81 °FPassing clouds.No wind70%29.92 "Hg3 mi
9:40 PM81 °FPassing clouds.5 mph70%29.92 "Hg3 mi
8:40 PM82 °FPassing clouds.2 mph66%29.92 "Hg3 mi
7:40 PM82 °FPassing clouds.3 mph70%29.89 "Hg3 mi
7:10 PM84 °FPassing clouds.2 mph70%29.89 "Hg3 mi
Weather by CustomWeather, © 2015

See weather overviewHow to use our weather pages